Location: Asheville, NC
(35.6000°N, 82.5500°W)
Time: 07:04:48
(UTC-05:00)

Vanguard 3 - Pass Details

Date: 15 February 2018
Orbit: 508 x 3264 km, 33.3° (Epoch: 19 February)

Event Time Altitude Azimuth Distance (km) Brightness Sun altitude
Rises 23:25:18 0° 268° (W) 3,415 - -60.7°
Reaches altitude 10° 23:27:54 10° 254° (WSW) 2,763 - -61.1°
Maximum altitude 23:33:14 24° 202° (SSW) 2,468 - -61.8°
Drops below altitude 10° 23:41:11 10° 154° (SSE) 4,279 - -62.7°
Sets 23:46:30 0° 143° (SE) 5,817 - -63.3°
